#timestamp,LO_Frequency,Hit,StdDev 
1691683215.1,286047000.2,N
1691683235.9,286046999.8,N
1691683255.7,286047000.3,N
1691683275.6,286047000.3,N
1691683295.4,286047000.6,N
1691683315.2,286047000.3,N
1691683335.1,286047000.2,N
1691683336.0,286047000.2,N
1691683355.8,286047000.1,N
1691683375.7,286046998.4,N
1691683395.5,286046998.5,N
1691683415.3,286047001.2,N
1691683435.2,286047000.9,N
1691683455.9,286047000.2,N
1691683475.7,286047000.2,N
1691683495.6,286046999.9,N
1691683515.4,286047000.0,N
1691683535.2,286047001.1,N
1691683555.1,286047001.2,N
1691683556.0,286047001.2,N
1691683575.8,286046998.6,N
1691683595.7,286047001.1,N
1691683615.5,286047001.1,N
1691683635.4,286046998.2,N
1691683655.2,286046998.8,N
1691683675.0,286046998.1,N
1691683675.9,286046998.1,N
1691683695.8,286047000.7,N
1691683715.6,286046998.2,N
1691683735.4,286046998.5,N
1691683755.3,286046998.7,N
1691683775.1,286047001.2,N
1691683795.9,286046998.8,N
1691683815.7,286046999.5,N
1691683835.5,286046999.2,N
1691683855.4,286046996.7,N
1691683875.2,286046999.5,N
1691683895.0,286046998.9,N
1691683896.0,286046998.9,N
1691683915.8,286046999.5,N
1691683935.6,286046996.9,N
1691683955.5,286046997.1,N
1691683975.3,286046996.8,N
1691683995.1,286046997.1,N
1691684015.9,286046996.9,N
1691684035.7,286046999.2,N
1691684055.6,286046999.4,N
1691684075.4,286046996.9,N
1691684095.2,286046998.8,N
1691684115.1,286046999.5,N
1691684116.0,286046999.5,N
1691684135.8,286046999.2,N
1691684155.7,286046997.8,N
1691684175.5,286046996.8,N
1691684195.3,286046999.1,N
1691684215.2,286046996.6,N
1691684235.9,286046997.2,N
1691684255.7,286046997.1,N
1691684275.6,286046996.5,N
1691684295.4,286046997.9,N
1691684315.3,286046997.4,N
1691684335.1,286046998.0,N
1691684336.0,286046998.0,N
1691684355.8,286046996.7,Y
1691684375.7,286046998.4,P
1691684395.5,286046998.2,P
1691684415.3,286046999.1,P
1691684435.2,286046999.2,N
1691684455.0,286046999.2,N
1691684455.9,286046999.2,N
1691684475.8,286046998.9,N
1691684495.6,286046998.3,Y
1691684515.4,286046998.6,P
1691684535.3,286047000.9,P
1691684555.1,286047002.5,N
1691684575.9,286047002.8,N
1691684595.7,286047001.8,N
1691684615.5,286046999.8,N
1691684635.4,286046999.9,N
1691684655.2,286047001.0,N
1691684675.0,286047001.2,N
1691684675.9,286047001.2,N
1691684695.8,286047000.8,N
1691684715.6,286046999.9,N
1691684735.5,286047000.2,N
1691684755.3,286047000.3,N
1691684775.1,286047000.9,N
1691684795.9,286047001.2,N
1691684815.7,286046998.4,N
1691684835.5,286046999.4,N
1691684855.4,286046998.7,N
1691684875.2,286046998.3,N
1691684895.0,286046998.7,N
1691684896.0,286046998.7,N
1691684915.8,286046998.5,N
1691684935.6,286046998.3,N
1691684955.5,286046999.3,N
1691684975.3,286046997.0,N
1691684995.1,286046999.6,N
1691685015.9,286046996.9,N
1691685035.7,286046999.1,N
1691685055.5,286046998.7,N
1691685075.4,286047001.0,N
1691685095.2,286046998.1,N
1691685115.1,286046998.1,N
1691685116.0,286046998.1,N
1691685135.8,286046998.8,N
1691685155.6,286047000.4,N
1691685175.5,286047000.3,N
1691685195.3,286046999.8,N
1691685215.1,286047000.1,N
1691685235.9,286047000.7,N
1691685255.7,286046999.8,N
1691685275.6,286047001.0,N
1691685295.4,286047001.0,N
1691685315.2,286046998.2,N
1691685335.1,286047002.3,N
1691685336.0,286047002.3,N
1691685355.8,286047002.3,N
1691685375.6,286047002.3,N
1691685395.5,286046999.9,N
1691685415.3,286047002.4,N
1691685435.2,286047001.6,N
1691685455.9,286047002.1,N
1691685475.7,286047002.4,N
1691685495.6,286047002.6,N
1691685515.4,286047002.4,N
1691685535.2,286046999.7,N
1691685555.1,286047002.1,N
1691685556.0,286047002.1,N
1691685575.8,286047001.4,N
1691685595.7,286047001.5,N
1691685615.5,286047002.0,N
1691685635.3,286047000.2,N
1691685655.2,286047002.2,N
1691685675.0,286046999.8,N
1691685675.9,286046999.8,N
1691685695.7,286046999.9,N
1691685715.6,286047000.5,N
1691685735.4,286047002.4,N
1691685755.3,286047000.0,N
1691685775.1,286047002.6,N
1691685776.0,286047002.6,N
1691685795.8,286047001.8,N
1691685815.7,286047003.9,Y
1691685835.5,286047002.2,P
1691685855.3,286047002.5,P
1691685875.2,286047002.4,P
1691685895.0,286047001.6,Y
1691685895.9,286047001.6,P
1691685915.8,286047000.8,N
1691685935.6,286046998.1,P
1691685955.4,286046998.4,N
1691685975.3,286047001.1,N
1691685995.1,286046999.8,N
1691686015.9,286047000.3,N
1691686035.7,286047000.3,N
1691686055.5,286047002.2,N
1691686075.4,286047002.7,N
1691686095.2,286046999.7,N
1691686115.0,286047002.7,N
1691686115.9,286047002.7,N
1691686135.8,286047002.2,N
1691686155.6,286046999.8,N
1691686175.5,286046999.8,N
1691686195.3,286046999.9,N
1691686215.1,286046999.8,N
1691686235.9,286047000.8,N
1691686255.7,286047000.9,N
1691686275.5,286047001.2,N
1691686295.4,286047000.7,N
1691686315.2,286047001.2,N
1691686335.0,286047001.2,N
1691686336.0,286047001.2,N
1691686355.8,286047001.1,N
1691686375.6,286047001.2,N
1691686395.5,286047000.9,N
1691686415.3,286047001.1,N
1691686435.1,286047001.2,N
1691686455.9,286047000.9,N
1691686475.7,286047000.9,N
1691686495.5,286047000.5,N
1691686515.4,286047000.7,N
1691686535.2,286046999.7,N
1691686555.1,286047003.9,Y
1691686556.0,286047003.9,P
1691686575.8,286047002.3,N
1691686595.6,286047002.3,N
1691686615.5,286047001.8,N
1691686635.3,286047004.4,Y
1691686655.2,286046999.9,P
1691686675.9,286047000.2,N
1691686695.7,286047000.4,N
1691686715.6,286047000.0,N
1691686735.4,286046998.9,N
1691686755.2,286046998.3,N
1691686775.1,286046998.6,N
1691686776.0,286046998.6,N
1691686795.8,286046998.1,N
